LFROLFRH

Guest
Details From LFRO - Lannion
To LFRH - Lorient Lann-Bihoue
Flight Number -
Tags generated
Created
Modified
Stats Distance 60 nm / 112 km
Max Altitude 3,200 ft / 975 m
Waypoints 3
Social Downloads 0
Likes 0
Share VATSIM

Download

Looking for another format? Having issues loading an existing format? Contact us
Advertisement - Login to hide

Notes

Basic altitude profile: - Ascent Rate: 2500ft/min - Ascent Speed: 250kts - Cruise Altitude: 35000ft - Cruise Speed: 420kts - Descent Rate: 1500ft/min - Descent Speed: 250kts

Route

LFRO SOPEX LFRH

ID Type Via Altitude Latitude Longitude Leg Dist Tot Dist Heading (true) Name
O LFRO APT - 0 ft / 0 m 48.75431˚ -3.47175˚ - 0 nm - Lannion
SOPEX FIX - 3,200 ft / 975 m 48.61333˚ -3.55000˚ 9 nm 9 nm 200° / 200° -
O LFRH APT - 0 ft / 0 m 47.76247˚ -3.44091˚ 51 nm 60 nm 175° / 175° Lorient Lann-Bihoue

Altitude Profile

Advertisement - Login to hide

LFRO

Details ICAO LFRO (LAI)
Name Lannion
Region France
Timezone Europe/Paris (UTC+2.0)
Stats Elevation 291 ft / 89 m (AMSL)
Location 48.754309° -3.471747°
Runways 1
Magnetic Variation 1.224° W

METAR

LFRO 212300Z AUTO 35003KT 4700 BR NSC 11/10 Q1015

Decode

TAF

TAF TAF LFRO 211939Z 2119/2212 CNL

Decode

Departure Runways

ID Width Length Bearing (true) Bearing (mag) Surface Threshold Offset Overrun Length
11 148 ft / 45 m 5,547 ft / 1,691 m 107.61° 108.83° Asphalt 755 ft / 230 m 0 ft / 0 m
29 148 ft / 45 m 5,547 ft / 1,691 m 287.62° 288.84° Asphalt 591 ft / 180 m 0 ft / 0 m

LFRH

Details ICAO LFRH (LRT)
Name Lorient Lann-Bihoue
Region France
Timezone Europe/Paris (UTC+2.0)
Stats Elevation 122 ft / 37 m (AMSL)
Location 47.762466° -3.440907°
Runways 2
Magnetic Variation 1.105° W

METAR

LFRH 212300Z AUTO 04005KT CAVOK 14/10 Q1014 NOSIG

Decode

TAF

TAF LFRH 211700Z 2118/2218 27010KT CAVOK BECMG 2118/2120 03007KT

Decode

Destination Runways

ID Width Length Bearing (true) Bearing (mag) Surface Threshold Offset Overrun Length
02 148 ft / 45 m 6,895 ft / 2,102 m 16.11° 17.21° Asphalt 0 ft / 0 m 0 ft / 0 m
07 148 ft / 45 m 7,879 ft / 2,401 m 71.70° 72.80° Concrete 0 ft / 0 m 295 ft / 90 m
20 148 ft / 45 m 6,895 ft / 2,102 m 196.12° 197.22° Asphalt 1,411 ft / 430 m 0 ft / 0 m
25 148 ft / 45 m 7,879 ft / 2,401 m 251.72° 252.82° Concrete 568 ft / 173 m 89 ft / 27 m

Approach Navaids

Runway Type Ident Frequency Range Bearing (true) Bearing (mag) Slope Elevation
25 Localiser BH 108.15 MHz 18 nm / 33 km 251.71° 252.81° - 144 ft / 44 m (AMSL)
25 Glidescope BH 108.15 MHz 10 nm / 19 km 251.71° 252.81° 3.00° 196 ft / 60 m (AMSL)